Weather Roundup
Issued by NWS

Home | Current Version | Previous Version | Graphics & Text | Print | Product List | Glossary Off
Versions: 1 2 3 4 5 6 7 8 9 10 11 12 13 14 15 16 17 18 19 20 21 22 23 24 25 26 27 28 29 30 31 32 33 34 35 36 37 38 39 40 41 42 43 44 45 46 47 48 49 50

000
NZUS93 KARX 260510
HRRWXR

CURRENT HOURLY OBSERVATIONS ACROSS
MUCH OF THE UPPER MISSISSIPPI VALLEY
NATIONAL WEATHER SERVICE LA CROSSE WI
1100 PM CST SUN JAN 25 2015


...SOUTHEAST MINNESOTA...


CITY           SKY/WX    TMP DP  RH WIND       PRES   REMARKS
ROCHESTER      CLOUDY    23  18  81 SW9       29.99F WCI  13
ROCHESTER/MAYO CLOUDY    26  17  71 SW5       30.00F WCI  20
WINONA         MOCLDY    19  16  86 CALM      30.04F
AUSTIN         MOCLDY    25  19  80 SW6       30.00F WCI  18
ALBERT LEA     MOCLDY    21  19  93 CALM      30.01S
DODGE CENTER   MOCLDY    21  19  93 SW5       29.99S WCI  15
PRESTON        CLOUDY    24  19  81 CALM      30.00F
OWATONNA       MOCLDY    21  18  86 S6        30.00F WCI  14
FARIBAULT      MOCLDY    19  18  93 CALM      30.01S
$$

...ELSEWHERE IN MINNESOTA...


CITY           SKY/WX    TMP DP  RH WIND       PRES   REMARKS
MINNEAPOLIS    CLOUDY    22  15  75 S7        30.00F WCI  13
INTNL FALLS    CLOUDY    23  14  68 S8        29.76F WCI  14
DULUTH         CLOUDY    18  10  71 S7        29.89F WCI   9
RED WING       PTCLDY    16  10  79 CALM      30.02S
REDWOOD FALLS  CLOUDY    30  28  92 S8        29.95F WCI  22
MANKATO        CLOUDY    25  19  80 S5        30.00S WCI  19
WORTHINGTON    CLOUDY    32  28  86 SW8       29.98S WCI  25
FAIRMONT       CLOUDY    28  23  80 S6        29.99F WCI  22
$$

...SOUTHWEST WISCONSIN...


CITY           SKY/WX    TMP DP  RH WIND       PRES   REMARKS
LA CROSSE      MOCLDY    23  16  74 S6        30.04S WCI  16
PRAIRIE DU CHI MOCLDY    19  13  77 CALM      30.06S
BOSCOBEL       CLOUDY    21  13  71 CALM      30.06F
LONE ROCK      CLOUDY    18  10  71 E6        30.06F WCI  10
PLATTEVILLE    CLOUDY    18  14  82 N3        30.03F
FORT MC COY    MOCLDY    17  11  75 CALM      30.05S
CAMP DOUGLAS   MOCLDY    13  12  98 E3        30.03F
VIROQUA        FAIR      19  12  76 SE3       30.00F
WIS DELLS      MOCLDY    14   9  82 CALM      30.04S
$$

...ELSEWHERE IN WISCONSIN...


CITY           SKY/WX    TMP DP  RH WIND       PRES   REMARKS
MILWAUKEE      PTCLDY    23  12  62 NE8       30.01F WCI  14
MADISON        MOCLDY    16  10  77 N5        30.03F WCI   9
GREEN BAY      PTCLDY    14   8  77 N5        30.05F WCI   6
EAU CLAIRE     MOCLDY    17   9  70 CALM      30.01F
BLACK RVR FLS  FAIR      16  10  80 CALM      30.02F
MEDFORD        MOCLDY     7   4  86 SE3       29.97S
WAUSAU         MOCLDY    13   4  67 SE5       29.99F WCI   5
WIS RAPIDS     MOCLDY    11   5  77 SE5       30.04F WCI   3
MARSHFIELD     MOCLDY    14   6  70 S6        30.00F WCI   5
RICE LAKE      CLEAR     14  10  83 CALM      30.00S
$$

...NORTHEAST IOWA...


CITY           SKY/WX    TMP DP  RH WIND       PRES   REMARKS
DECORAH        CLOUDY    23  16  74 SE6       30.01F WCI  16
MASON CITY     CLOUDY    25  21  85 S3        30.03F
CHARLES CITY   CLOUDY    27  23  86 W3        30.04R
OELWEIN        CLOUDY    23  18  80 S6        30.04R WCI  16
$$

...ELSEWHERE IN IOWA...


CITY           SKY/WX    TMP DP  RH WIND       PRES   REMARKS
DES MOINES     CLOUDY    32  23  69 NW6       30.07F WCI  26
IOWA CITY      CLOUDY    21  15  78 CALM      30.08F
FORT DODGE     CLOUDY    28  23  80 CALM      30.03F
$$

...NORTHERN ILLINOIS...


CITY           SKY/WX    TMP DP  RH WIND       PRES   REMARKS
CHICAGO-OHARE  MOCLDY    24  15  68 NE9       29.99R WCI  14
CHICAGO-MIDWAY CLOUDY    27  18  69 N15       29.98S WCI  15
MOLINE         PTCLDY    20  13  74 N6        30.05F WCI  12
ROCKFORD       PTCLDY    17  10  74 N8        30.03F WCI   7
PEORIA         CLEAR     23  15  71 N9        30.02S WCI  13
$$

NOTE: "FAIR" INDICATES FEW OR NO CLOUDS BELOW 12,000 FEET WITH NO
SIGNIFICANT WEATHER AND/OR OBSTRUCTIONS TO VISIBILITY. WIND
SPEEDS ARE IN MILES-PER-HOUR.



USA.gov is the U.S. government's official web portal to all federal, state and local government web resources and services.